Home > Weather > Thompson > Past weeks

Flag for Canada Weather for the Past 2 Weeks in Thompson, Manitoba, Canada

Now
-4 °F

Light snow. Mostly cloudy.


Feels Like: -15 °F
Forecast: N/A
Wind: 5 mph from North

Location: Thompson

Current Time: Feb 7, 2016 at 4:36:56 PM

Latest Report: Feb 7, 2016 at 3:00 PM


Visibility: 2 mi

Pressure: 30.08 "Hg

Humidity: 77%

Dew point: -9 °F

Location of ThompsonLocation

Historic Weather in Thompson — Graph

°F

Thompson Temperature Yesterday

Maximum temperature yesterday: -4 °F (at 2:00 PM)
Minimum temperature yesterday: -22 °F (at 12:00 AM)
Average temperature yesterday: -12 °F

High & Low Weather Summary for the Past Weeks

 TemperatureHumidityPressure
High21 °F (Jan 29, 4:00 PM)93% (Jan 25, 10:00 AM)30.27 "Hg (Jan 25, 10:00 AM)
Low-29 °F (Feb 5, 9:00 AM)53% (Feb 5, 3:00 PM)29.04 "Hg (Jan 29, 9:00 PM)
Average-2 °F78%29.91 "Hg
* Reported Jan 23 3:00 PM — Feb 7 3:00 PM, Thompson, Weather by CustomWeather, © 2016

Note: Actual official high and low records may vary slightly from our data, if they occured in-between our weather recording intervals... More about our weather records

Advertising

Thompson Weather History for the Previous 24 Hours

 ConditionsComfort  
Time TempWeatherWind HumidityBarometerVisibility
3:00 PM
Sun, Feb 7
-4 °FLight snow. Mostly cloudy.5 mph77%30.08 "Hg2 mi
2:00 PM-4 °FLight snow. Mostly cloudy.7 mph71%30.07 "Hg2 mi
1:54 PM-4 °FLight snow. Mostly cloudy.9 mph65%30.06 "Hg2 mi
1:00 PM-6 °FLight snow. Mostly cloudy.8 mph70%30.04 "Hg1 mi
12:00 PM-6 °FLight snow. Ice fog.7 mph70%30.03 "Hg1 mi
11:00 AM-8 °FLight snow. Overcast.7 mph77%30.03 "Hg3 mi
10:00 AM-8 °FLight snow. Mostly cloudy.9 mph70%30.01 "Hg2 mi
9:00 AM-9 °FLight snow. Overcast.8 mph77%29.98 "Hg5 mi
8:00 AM-9 °FLight snow. Ice fog.7 mph77%29.97 "Hg1 mi
7:00 AM-9 °FLight snow. Overcast.7 mph70%29.94 "Hg2 mi
6:00 AM-9 °FLight snow. Low clouds.8 mph70%29.92 "Hg2 mi
5:00 AM-9 °FLight snow. Low clouds.7 mph77%29.90 "Hg1 mi
4:53 AM-9 °FLight snow. Low clouds.8 mph77%29.90 "Hg1 mi
4:00 AM-9 °FLight snow. Mostly cloudy.7 mph77%29.87 "Hg3 mi
3:00 AM-8 °FLight snow. Mostly cloudy.10 mph70%29.85 "Hg3 mi
2:00 AM-8 °FLight snow. Mostly cloudy.8 mph77%29.83 "Hg2 mi
1:00 AM-6 °FLight snow. Mostly cloudy.9 mph70%29.81 "Hg3 mi
12:00 AM-6 °FLight snow. Mostly cloudy.9 mph77%29.80 "Hg3 mi
11:00 PM
Sat, Feb 6
-6 °FLight snow. Mostly cloudy.10 mph77%29.80 "Hg2 mi
10:00 PM-6 °FMostly cloudy.9 mph77%29.80 "Hg3 mi
9:00 PM-6 °FLight snow. Mostly cloudy.9 mph77%29.80 "Hg3 mi
8:00 PM-6 °FLight snow. Mostly cloudy.8 mph77%29.80 "Hg3 mi
7:00 PM-6 °FLight snow. Mostly cloudy.9 mph77%29.80 "Hg3 mi
6:00 PM-6 °FLight snow. Mostly cloudy.6 mph77%29.81 "Hg3 mi
5:00 PM-4 °FLight snow. More clouds than sun.9 mph71%29.83 "Hg3 mi
4:00 PM-4 °FLight snow. Mostly cloudy.5 mph65%29.83 "Hg4 mi
Weather by CustomWeather, © 2016

See weather overviewHow to use our weather pages